www.pogodaiklimat.ru

ПОГОДА в Лаконии, NH

  • Прогноз погоды в Лаконии
  • Монитор погоды в Лаконии
  • Климат в Лаконии

АРХИВ ПОГОДЫ в Лаконии

Время (UTC), дата Ветер
(напр.,м/с)
 
Видим.   Явления Облачность Т
(С)
Тd
(С)
f
(%)
Тe
(С)
Тes
(С)
Комфортность

P
(гПа)

Po
(гПа)
Тmin
(С)
Tmax
(С)
R
(мм)
SD
(см)
00:56 24.06 ЮЗ  16 км    ясно  +20.0  +10.6  55  +22  +22  комфорт  1008.8  989.3         
01:56 24.06 З  16 км    ясно  +17.8  +9.4  58  +19  +19    1009.1  989.3         
02:56 24.06   16 км    ясно  +17.2  +9.4  60  +17  +17    1009.3  989.6         
03:56 24.06 З  16 км    ясно  +16.1  +10.0  67  +16  +16    1009.3  989.6         
04:56 24.06   16 км    ясно  +15.0  +10.6  75  +15  +15    1009.2  989.6  +14.4  +25.0     
05:56 24.06 нст  16 км    ясно  +16.1  +10.6  70  +16  +16    1009.3  989.6         
06:56 24.06   16 км    ясно  +13.9  +10.0  77  +14  +14    1009.5  990.0         
07:56 24.06   11 км    ясно  +12.8  +10.0  83  +12  +12    1009.8  990.3         
08:56 24.06   16 км    ясно  +13.3  +10.6  84  +13  +13    1010.2  990.6         
09:56 24.06 ЮЗ  16 км    ясно  +16.7  +11.7  72  +17  +18    1010.6  991.0         
10:56 24.06 ЮЗ  16 км    ясно  +19.4  +11.7  61  +21  +24  комфорт  1010.8  991.3  +12.2  +19.4     
11:56 24.06 нст  16 км    ясно  +22.2  +11.7  51  +24  +30  комфорт  1011.0  991.3         
12:56 24.06 З  16 км    ясно  +22.8  +8.9  41  +24  +30  комфорт  1011.0  991.3         
13:56 24.06 нст  16 км    ясно  +23.3  +6.7  34  +24  +35  комфорт  1010.9  991.3         
14:56 24.06 С  16 км    ясно  +24.4  +7.2  33  +25  +38  комфорт  1010.9  991.0         
15:56 24.06 нст  16 км    ясно  +25.6  +6.7  30  +25  +39  комфорт  1010.6  991.0         
16:56 24.06 СЗ  16 км    ясно  +26.1  +6.1  28  +26  +37  жарко  1010.2  990.6  +19.4  +26.7     
17:56 24.06 З  16 км    ясно  +27.2  +7.2  28  +27  +39  жарко  1010.3  990.6         
18:56 24.06 З  16 км    ясно  +27.2  +6.7  27  +27  +37  жарко  1010.0  990.3         
19:56 24.06 З  16 км    ясно  +27.2  +7.2  28  +27  +33  жарко  1009.9  990.3         
20:56 24.06 нст  16 км    ясно  +27.2  +8.3  30  +27  +33  жарко  1009.8  990.3         
21:56 24.06 З  16 км    ясно  +26.1  +8.9  34  +26  +30  жарко  1010.1  990.6         
22:56 24.06   16 км    ясно  +22.8  +12.8  53  +26  +27  жарко  1010.5  990.6  +22.8  +27.8     
23:56 24.06   16 км    ясно  +18.9  +12.8  68  +20  +20    1010.5  991.0         
00:56 25.06   16 км    ясно  +17.8  +12.2  70  +18  +18    1011.3  991.6         
01:56 25.06   16 км    ясно  +16.7  +12.8  78  +17  +17    1011.9  992.3         
02:56 25.06   16 км    ясно  +15.6  +12.8  83  +15  +15    1012.2  992.6         
03:56 25.06   16 км    ясно  +13.9  +12.2  89  +13  +13    1012.4  993.0         
04:56 25.06   16 км    ясно  +13.3  +11.7  90  +13  +13    1012.3  992.6  +13.3  +22.2     
05:56 25.06   16 км    ясно  +12.8  +11.1  89  +12  +12    1012.6  993.0         
06:56 25.06   16 км    ясно  +12.2  +10.6  90  +12  +12    1012.5  993.0         
07:56 25.06   16 км    ясно  +12.2  +10.0  86  +12  +12    1013.1  993.3         
08:56 25.06 В  16 км    ясно  +13.9  +10.6  80  +12  +12    1013.3  993.6         
09:56 25.06 СВ  16 км    8/0 2400 м
[средняя] 
+15.6  +10.6  72  +14  +14    1013.5  993.6         
10:56 25.06 СВ  16 км    ясно  +15.6  +11.1  75  +15  +16    1013.5  993.6  +11.1  +15.6     
11:56 25.06 В  16 км    2/0 2700 м
[средняя] 
+16.7  +12.2  75  +16  +19    1013.8  994.0         
12:56 25.06 СВ  16 км    10/0 2100 м
[средняя] 
+17.2  +12.8  75  +17  +19    1013.2  993.3         
13:56 25.06 СВ  16 км  слабый дождь  10/10 1800 м  +17.8  +13.9  78  +18  +18    1013.4  993.6         
14:56 25.06 В  16 км  слабый дождь  10/10 1800 м  +18.3  +15.0  81  +19  +19    1013.2  993.3         
15:56 25.06 СВ  16 км  слабый дождь  10/8 1230 м
[средняя] 
+18.3  +16.1  87  +19  +20    1013.1  993.3         
16:56 25.06 нст  16 км  слабый дождь  10/10 900 м  +17.8  +16.1  90  +18  +18    1012.8  993.0  +15.6  +18.3  0.5   
17:21 25.06 СВ  5
{7} 
10 км  слабый дождь, дымка  10/10 360 м  +18.0  +17.0  94  +17  +17      992.3         
17:56 25.06 СВ  16 км  слабый дождь  10/10 510 м  +17.8  +16.7  93  +17  +17    1012.3  992.3         
18:36 25.06 С  6 км  дождь, дымка  10/10 390 м  +18.0  +17.0  94  +18  +18      992.6         
18:56 25.06 СВ  5 км  дождь, дымка  10/10 330 м  +17.8  +17.2  96  +18  +18    1012.1  992.3         
19:32 25.06 С  10 км  слабый дождь, дымка  10/10 210 м  +18.0  +17.0  94  +19  +19      992.3         
19:56 25.06 СВ  4 км  дождь, дымка  10/10 210 м  +17.8  +17.2  96  +18  +18    1011.8  992.0      4.6   
20:17 25.06 нст  5 км  слабый дождь, дымка  10/10 270 м  +18.0  +17.0  94  +19  +19      992.0         

 

Местоположение метеостанции Laconia Municipal Airport: широта 43.5667 долгота -71.4167 высота над уровнем моря 166 м.

В архиве по умолчанию представлена погода в Лаконии за последние 1-2 суток. Обновление информации о фактической погоде в базе происходит ежечасно! Архивные данные за месяц целиком и за предыдущие месяцы Вы можете получить, выбрав интересующий диапазон дат из раскрывающегося списка и нажав кнопку "Ввод!".

Внимание! Архив погоды МЕТАР в базе сайта хранится не более 60 дней. Нет смысла пытаться выбрать более раннюю дату.

Внимание! Время в таблицах - всемирное. Для получения местного времени необходимо прибавить поправку, которая в Лаконии равна -5 ч.

Ветер - указаны скорость ветра в м/с и направление, откуда дует ветер: С - северный, СВ - северо-восточный, В - восточный, ЮВ - юго-восточный, Ю - южный, ЮЗ - юго-западный, З - западный, СЗ - северо-западный.
Видимость - горизонтальная дальность видимости в метрах или километрах. При видимости от 1 до 10 км при отсутствии осадков обычно наблюдается дымка, при ухудшении видимости до 1 км и менее - туман. В сухую погоду видимость может ухудшаться дымом, пылью или мглою.
Атмосферные явления - указаны явления, наблюдавшиеся в указанный момент времени.
Облачность - указаны через наклонную черту верхняя и нижняя облачность в баллах и высота нижней границы облаков в метрах. Внимание: облачность, как и прочие метеорологические величины в США измеряются автоматическими метеостанциями. Указанные значения в баллах носят условный характер и показывают процент времени, в течение которого, в среднем, лазерный луч высотомера отражался от облаков обратно.
T - Температура воздуха - температура, измеренная на высоте 2 м над землей.
Td - Температура точки росы - температура, при понижении до которой содержащийся в воздухе водяной пар достигнет насыщения.
f - Относительная влажность воздуха - влажноcть воздуха, измеренная на высоте 2 м над землей.
Te - Эффективная температура - температура, которую ощущает одетый по сезону человек в тени. Характеристика душности погоды. При расчете учитывается влияние влажности воздуха и скорости ветра на теплоощущения человека.
Tes - Эффективная температура на солнце - температура, которую ощущает человек, с поправкой на солнечный нагрев. Характеристика знойности погоды. Зависит от высоты солнца над горизонтом, облачности и скорости ветра. Ночью, в пасмурную погоду, а также при ветре 12 м/с и более поправка равна нулю.
P - Атмосферное давление - приведенное к уровню моря атмосферное давление.
Po - Атмосферное давление - измеренное на уровне метеостанции атмосферное давление.
Tmin - Минимальная температура - минимум температуры воздуха на высоте 2 м над землей.
Tmax - Максимальная температура - максимум температуры воздуха на высоте 2 м над землей.
R - Количество осадков - Количество выпавших осадков за 3 или 6 часов, мм.
SD - Снежный покров - Высота снежного покрова, см.